When you browse on this site, cookies collect data to enhance your experience and personalize the content and advertising you see.
Visit our Privacy Policy to learn more. By continuing to use the site, you agree to this use of cookies and data.
  • In Hungary
  • List of Countries
  • For 7 days
  • Water Temperature
  • Weather Map
  • News
  • Weather Widgets
  • user-avatar
    Login

    Hourly Weather Demidovka

    Today, 24 August, Saturday

    Time Temperature Precipitation Wind Pressure Humidity
    00:00 +14°C° 0 mm 2 mps 758 mmHg 86%
    01:00 +13°C° 0 mm 2 mps 758 mmHg 87%
    02:00 +13°C° 0 mm 1 mps 758 mmHg 88%
    03:00 +13°C° 0 mm 1 mps 758 mmHg 88%
    04:00 +12°C° 0 mm 1 mps 758 mmHg 88%
    05:00 +12°C° 0 mm 1 mps 758 mmHg 88%
    06:00 +14°C° 0 mm 1 mps 758 mmHg 82%
    07:00 +16°C° 0 mm 1 mps 758 mmHg 76%
    08:00 +19°C° 0 mm 1 mps 758 mmHg 68%
    09:00 +20°C° 0 mm 1 mps 758 mmHg 63%
    10:00 +22°C° 0 mm 1 mps 758 mmHg 57%
    11:00 +23°C° 0 mm 2 mps 758 mmHg 51%
    12:00 +24°C° 0 mm 2 mps 758 mmHg 49%
    13:00 +24°C° 0 mm 2 mps 757 mmHg 46%
    14:00 +25°C° 0 mm 2 mps 757 mmHg 44%
    15:00 +25°C° 0 mm 2 mps 757 mmHg 48%
    16:00 +24°C° 0 mm 1 mps 757 mmHg 52%
    17:00 +24°C° 0 mm 1 mps 757 mmHg 56%
    18:00 +22°C° 0 mm 1 mps 757 mmHg 61%
    19:00 +20°C° 0 mm 1 mps 757 mmHg 66%
    20:00 +18°C° 0 mm 1 mps 757 mmHg 71%
    21:00 +18°C° 0 mm 1 mps 757 mmHg 74%
    22:00 +16°C° 0 mm 1 mps 757 mmHg 77%
    23:00 +15°C° 0 mm 1 mps 757 mmHg 80%

    Tomorrow, 25 August, Sunday

    Time Temperature Precipitation Wind Pressure Humidity
    00:00 +15°C° 0 mm 1 mps 757 mmHg 81%
    01:00 +15°C° 0 mm 1 mps 757 mmHg 82%
    02:00 +15°C° 0 mm 1 mps 757 mmHg 82%
    03:00 +14°C° 0 mm 1 mps 757 mmHg 84%
    04:00 +14°C° 0 mm 1 mps 757 mmHg 86%
    05:00 +14°C° 0 mm 1 mps 757 mmHg 88%
    06:00 +16°C° 0 mm 1 mps 757 mmHg 83%
    07:00 +17°C° 0 mm 2 mps 757 mmHg 78%
    08:00 +19°C° 0 mm 2 mps 758 mmHg 73%
    09:00 +21°C° 0 mm 2 mps 758 mmHg 69%
    10:00 +23°C° 0 mm 2 mps 758 mmHg 64%
    11:00 +24°C° 0 mm 2 mps 758 mmHg 60%
    12:00 +25°C° 0 mm 2 mps 758 mmHg 58%
    13:00 +25°C° 0 mm 2 mps 758 mmHg 57%
    14:00 +26°C° 0 mm 2 mps 757 mmHg 55%
    15:00 +25°C° 0 mm 2 mps 757 mmHg 57%
    16:00 +25°C° 0 mm 2 mps 757 mmHg 60%
    17:00 +25°C° 0 mm 2 mps 757 mmHg 62%
    18:00 +23°C° 0 mm 2 mps 757 mmHg 67%
    19:00 +20°C° 0 mm 2 mps 757 mmHg 73%
    20:00 +18°C° 0 mm 2 mps 758 mmHg 78%
    21:00 +17°C° 0 mm 2 mps 758 mmHg 80%
    22:00 +16°C° 0 mm 2 mps 758 mmHg 81%
    23:00 +16°C° 0 mm 2 mps 758 mmHg 82%

    Day after tomorrow, 26 August, Monday

    Time Temperature Precipitation Wind Pressure Humidity
    00:00 +15°C° 0 mm 2 mps 758 mmHg 83%
    01:00 +15°C° 0 mm 2 mps 758 mmHg 84%
    02:00 +14°C° 0 mm 2 mps 758 mmHg 85%
    03:00 +14°C° 0 mm 2 mps 758 mmHg 86%
    04:00 +13°C° 0 mm 2 mps 758 mmHg 87%
    05:00 +13°C° 0 mm 1 mps 758 mmHg 88%
    06:00 +15°C° 0 mm 1 mps 758 mmHg 82%
    07:00 +16°C° 0 mm 1 mps 758 mmHg 77%
    08:00 +19°C° 0 mm 1 mps 758 mmHg 71%
    09:00 +21°C° 0 mm 1 mps 758 mmHg 66%
    10:00 +22°C° 0 mm 1 mps 758 mmHg 61%
    11:00 +24°C° 0 mm 2 mps 758 mmHg 55%
    12:00 +25°C° 0 mm 1 mps 758 mmHg 53%
    13:00 +25°C° 0 mm 1 mps 758 mmHg 50%
    14:00 +26°C° 0 mm 1 mps 757 mmHg 47%
    15:00 +26°C° 0 mm 1 mps 757 mmHg 49%
    16:00 +25°C° 0 mm 1 mps 757 mmHg 51%
    17:00 +25°C° 0 mm 1 mps 756 mmHg 53%
    18:00 +23°C° 0 mm 1 mps 756 mmHg 59%
    19:00 +21°C° 0 mm 1 mps 756 mmHg 64%
    20:00 +19°C° 0 mm 1 mps 756 mmHg 69%
    21:00 +18°C° 0 mm 1 mps 756 mmHg 71%
    22:00 +16°C° 0 mm 1 mps 756 mmHg 74%
    23:00 +16°C° 0 mm 1 mps 756 mmHg 76%

    27 August, Tuesday

    Time Temperature Precipitation Wind Pressure Humidity
    00:00 +15°C° 0 mm 1 mps 756 mmHg 77%
    01:00 +14°C° 0 mm 0 mps 756 mmHg 78%
    02:00 +13°C° 0 mm 0 mps 756 mmHg 79%
    03:00 +13°C° 0 mm 0 mps 755 mmHg 80%
    04:00 +14°C° 0 mm 1 mps 755 mmHg 81%
    05:00 +14°C° 0 mm 1 mps 755 mmHg 82%
    06:00 +15°C° 0 mm 1 mps 755 mmHg 78%
    07:00 +18°C° 0 mm 1 mps 755 mmHg 73%
    08:00 +20°C° 0 mm 1 mps 755 mmHg 69%
    09:00 +21°C° 0 mm 2 mps 755 mmHg 64%
    10:00 +23°C° 0 mm 2 mps 755 mmHg 60%
    11:00 +25°C° 0 mm 2 mps 755 mmHg 56%
    12:00 +25°C° 0 mm 3 mps 755 mmHg 55%
    13:00 +26°C° 0 mm 3 mps 754 mmHg 54%
    14:00 +27°C° 0 mm 3 mps 754 mmHg 53%
    15:00 +26°C° 0 mm 3 mps 754 mmHg 58%
    16:00 +26°C° 0 mm 3 mps 754 mmHg 62%
    17:00 +25°C° 0 mm 3 mps 753 mmHg 66%
    18:00 +22°C° 0 mm 3 mps 754 mmHg 71%
    19:00 +21°C° 0 mm 3 mps 754 mmHg 77%
    20:00 +19°C° 0 mm 2 mps 754 mmHg 82%
    21:00 +18°C° 0 mm 2 mps 754 mmHg 85%
    22:00 +17°C° 0 mm 2 mps 754 mmHg 88%
    23:00 +16°C° 0 mm 2 mps 754 mmHg 91%

    28 August, Wednesday

    Time Temperature Precipitation Wind Pressure Humidity
    00:00 +16°C° 0 mm 2 mps 754 mmHg 91%
    01:00 +15°C° 0 mm 2 mps 755 mmHg 91%
    02:00 +15°C° 0 mm 2 mps 755 mmHg 92%
    03:00 +14°C° 0 mm 2 mps 755 mmHg 92%
    04:00 +13°C° 0 mm 2 mps 755 mmHg 92%
    05:00 +13°C° 0 mm 2 mps 755 mmHg 92%
    06:00 +14°C° 0 mm 2 mps 755 mmHg 87%
    07:00 +16°C° 0 mm 2 mps 755 mmHg 81%
    08:00 +17°C° 0 mm 3 mps 756 mmHg 76%
    09:00 +18°C° 0 mm 3 mps 756 mmHg 69%
    10:00 +20°C° 0 mm 3 mps 756 mmHg 63%
    11:00 +21°C° 0 mm 3 mps 756 mmHg 56%
    12:00 +22°C° 0 mm 3 mps 756 mmHg 54%
    13:00 +22°C° 0 mm 3 mps 755 mmHg 51%
    14:00 +22°C° 0 mm 3 mps 755 mmHg 49%
    15:00 +22°C° 0 mm 3 mps 755 mmHg 52%
    16:00 +21°C° 0 mm 3 mps 755 mmHg 54%
    17:00 +20°C° 0 mm 4 mps 755 mmHg 57%
    18:00 +18°C° 0 mm 3 mps 755 mmHg 60%
    19:00 +16°C° 0 mm 3 mps 755 mmHg 63%
    20:00 +13°C° 0 mm 3 mps 755 mmHg 66%
    21:00 +12°C° 0 mm 3 mps 756 mmHg 65%
    22:00 +11°C° 0 mm 3 mps 756 mmHg 65%
    23:00 +10°C° 0 mm 3 mps 756 mmHg 65%

    29 August, Thursday

    Time Temperature Precipitation Wind Pressure Humidity
    00:00 +9°C° 0 mm 3 mps 756 mmHg 67%
    01:00 +8°C° 0 mm 3 mps 756 mmHg 70%
    02:00 +8°C° 0 mm 2 mps 756 mmHg 73%
    03:00 +7°C° 0 mm 2 mps 757 mmHg 74%
    04:00 +7°C° 0 mm 2 mps 757 mmHg 76%
    05:00 +6°C° 0 mm 2 mps 757 mmHg 77%
    06:00 +8°C° 0 mm 3 mps 757 mmHg 73%
    07:00 +10°C° 0 mm 3 mps 757 mmHg 70%
    08:00 +11°C° 0 mm 3 mps 757 mmHg 66%
    09:00 +13°C° 0 mm 3 mps 757 mmHg 60%
    10:00 +16°C° 0 mm 3 mps 757 mmHg 53%
    11:00 +17°C° 0 mm 3 mps 757 mmHg 47%
    12:00 +18°C° 0 mm 3 mps 757 mmHg 45%
    13:00 +19°C° 0 mm 3 mps 756 mmHg 43%
    14:00 +19°C° 0 mm 3 mps 756 mmHg 41%
    15:00 +19°C° 0 mm 3 mps 756 mmHg 44%
    16:00 +19°C° 0 mm 3 mps 756 mmHg 48%
    17:00 +18°C° 0 mm 3 mps 756 mmHg 51%
    18:00 +16°C° 0 mm 3 mps 756 mmHg 56%
    19:00 +13°C° 0 mm 3 mps 756 mmHg 61%
    20:00 +13°C° 0 mm 2 mps 756 mmHg 66%
    21:00 +12°C° 0 mm 2 mps 756 mmHg 69%
    22:00 +10°C° 0 mm 2 mps 756 mmHg 73%
    23:00 +10°C° 0 mm 2 mps 756 mmHg 76%
    Show more